Weather History for Pittsburgh Allegheny Co., PA

Change the Weather History Date:

Thursday, April 10, 2014

  Actual Average Record
Temperature  
Mean Temperature 56 °F -  
Max Temperature 72 °F 60 °F 82 °F (2011)
Min Temperature 41 °F 37 °F 14 °F (1997)
Degree Days  
Heating Degree Days 8    
Growing Degree Days 6 (Base 50)    
Moisture  
Dew Point 27 °F    
Average Humidity 33    
Maximum Humidity 57    
Minimum Humidity 19    
Precipitation  
Precipitation 0.00 in - - ()
Sea Level Pressure  
Sea Level Pressure 30.00 in    
Wind  
Wind Speed 11 mph (SSW)    
Max Wind Speed 28 mph    
Max Gust Speed 34 mph    
Visibility 10 miles    
Events      
Averages and records for this station are not official NWS values.
T = Trace of Precipitation, MM = Missing Value Source: NWS Daily Summary

Daily Weather History Graph

Daily Weather History Graph

Search for Another Location

Airport:

Trip Planner

Search our weather history database for the weather conditions in past years. The results will help you decide how hot, cold, wet, or windy it might be!

Date:

Astronomy

Apr. 10, 2014 Rise Set
Actual Time 6:49 AM EDT 7:53 PM EDT
Civil Twilight 6:21 AM EDT 8:21 PM EDT
Nautical Twilight 5:48 AM EDT 8:54 PM EDT
Astronomical Twilight 5:13 AM EDT 9:29 PM EDT
Moon 3:35 PM EDT (4/10) 4:11 AM EDT (4/10)
Length of Visible Light 14h 00m
Length of Day
13h 04m
Waxing Gibbous, 79% of the Moon is Illuminated
Apr 10
Waxing Gibbous
Apr 15
Full
Apr 22
Last Quarter
Apr 29
New
May 6
First Quarter

Hourly Weather History & Observations

Time (EDT) Temp. Windchill Dew Point Humidity Pressure Visibility Wind Dir Wind Speed Gust Speed Precip Events Conditions
12:53 AM 43.0 °F 38.8 °F 19.9 °F 40% 30.07 in 10.0 mi South 6.9 mph - N/A   Clear
1:53 AM 43.0 °F 38.2 °F 21.9 °F 43% 30.06 in 10.0 mi South 8.1 mph - N/A   Clear
2:53 AM 43.0 °F 38.2 °F 23.0 °F 45% 30.06 in 10.0 mi South 8.1 mph - N/A   Clear
3:53 AM 42.1 °F 37.1 °F 23.0 °F 47% 30.06 in 10.0 mi South 8.1 mph - N/A   Clear
4:53 AM 41.0 °F 35.2 °F 25.0 °F 53% 30.07 in 10.0 mi South 9.2 mph - N/A   Clear
5:53 AM 42.1 °F 36.1 °F 26.1 °F 53% 30.08 in 10.0 mi South 10.4 mph - N/A   Clear
6:53 AM 41.0 °F 35.8 °F 27.0 °F 57% 30.09 in 10.0 mi South 8.1 mph - N/A   Clear
7:53 AM 44.1 °F 38.6 °F 28.0 °F 53% 30.11 in 10.0 mi South 10.4 mph - N/A   Clear
8:53 AM 48.9 °F - 28.0 °F 44% 30.11 in 10.0 mi South 16.1 mph - N/A   Clear
9:53 AM 55.4 °F - 28.4 °F 36% 30.07 in 10.0 mi South 10.4 mph 27.6 mph N/A   Clear
10:53 AM 60.1 °F - 30.0 °F 32% 30.09 in 10.0 mi SSW 15.0 mph 23.0 mph N/A   Clear
11:53 AM 63.0 °F - 28.0 °F 27% 30.06 in 10.0 mi SW 18.4 mph 26.5 mph N/A   Clear
12:53 PM 64.9 °F - 27.0 °F 24% 30.03 in 10.0 mi SSW 27.6 mph 34.5 mph N/A   Clear
1:53 PM 68.0 °F - 28.0 °F 22% 29.99 in 10.0 mi South 15.0 mph - N/A   Clear
2:53 PM 70.0 °F - 26.1 °F 19% 29.96 in 10.0 mi South 17.3 mph 31.1 mph N/A   Clear
3:53 PM 72.0 °F - 27.0 °F 19% 29.93 in 10.0 mi SSW 19.6 mph 24.2 mph N/A   Clear
4:53 PM 71.1 °F - 28.0 °F 20% 29.89 in 10.0 mi South 12.7 mph 23.0 mph N/A   Partly Cloudy
5:53 PM 71.1 °F - 28.0 °F 20% 29.87 in 10.0 mi SSW 16.1 mph 27.6 mph N/A   Clear
6:53 PM 71.1 °F - 27.0 °F 19% 29.85 in 10.0 mi SSW 23.0 mph 33.4 mph N/A   Clear
7:53 PM 69.1 °F - 28.0 °F 22% 29.87 in 10.0 mi SSW 10.4 mph - N/A   Clear
8:53 PM 66.9 °F - 28.0 °F 23% 29.90 in 10.0 mi SSW 6.9 mph - N/A   Clear
9:53 PM 66.9 °F - 28.9 °F 24% 29.92 in 10.0 mi SSW 8.1 mph - N/A   Clear
10:53 PM 64.9 °F - 30.0 °F 27% 29.91 in 10.0 mi South 8.1 mph - N/A   Scattered Clouds
11:53 PM 66.0 °F - 30.0 °F 26% 29.91 in 10.0 mi South 10.4 mph - N/A   Mostly Cloudy